TimeCDT,TemperatureF,Dew PointF,Humidity,Sea Level PressureIn,VisibilityMPH,Wind Direction,Wind SpeedMPH,Gust SpeedMPH,PrecipitationIn,Events,Conditions,WindDirDegrees,DateUTC
12:15 AM,62.6,53.6,72,29.69,10.0,Calm,Calm,-,N/A,,Clear,0,2013-05-22 05:15:00
12:35 AM,60.8,53.6,77,29.69,10.0,Calm,Calm,-,N/A,,Clear,0,2013-05-22 05:35:00
12:55 AM,60.8,55.4,82,29.69,10.0,Calm,Calm,-,N/A,,Clear,0,2013-05-22 05:55:00
1:15 AM,60.8,55.4,82,29.69,10.0,Calm,Calm,-,N/A,,Clear,0,2013-05-22 06:15:00
1:35 AM,60.8,55.4,82,29.68,10.0,Calm,Calm,-,N/A,,Scattered Clouds,0,2013-05-22 06:35:00
1:55 AM,60.8,55.4,82,29.69,10.0,Calm,Calm,-,N/A,,Mostly Cloudy,0,2013-05-22 06:55:00
2:15 AM,60.8,55.4,82,29.69,10.0,Calm,Calm,-,N/A,,Overcast,0,2013-05-22 07:15:00
4:55 AM,64.4,55.4,73,29.66,10.0,ENE,5.8,-,N/A,,Overcast,70,2013-05-22 09:55:00
5:15 AM,62.6,55.4,77,29.66,10.0,ENE,5.8,-,N/A,,Mostly Cloudy,70,2013-05-22 10:15:00
5:35 AM,62.6,55.4,77,29.66,10.0,East,4.6,-,N/A,,Scattered Clouds,80,2013-05-22 10:35:00
5:55 AM,62.6,55.4,77,29.66,10.0,East,5.8,-,N/A,,Clear,90,2013-05-22 10:55:00
6:15 AM,60.8,55.4,82,29.67,10.0,East,3.5,-,N/A,,Scattered Clouds,100,2013-05-22 11:15:00
6:35 AM,60.8,55.4,82,29.66,10.0,East,8.1,-,N/A,,Mostly Cloudy,90,2013-05-22 11:35:00
6:45 AM,60.8,55.4,82,29.66,10.0,East,5.8,-,N/A,,Mostly Cloudy,80,2013-05-22 11:45:00
6:55 AM,59.0,55.4,88,29.67,7.0,Calm,Calm,-,N/A,,Mostly Cloudy,0,2013-05-22 11:55:00
7:45 AM,60.8,57.2,88,29.66,5.0,Calm,Calm,-,N/A,,Light Drizzle,0,2013-05-22 12:45:00
8:45 AM,60.8,59.0,94,29.65,1.8,ENE,4.6,-,N/A,Rain,Heavy Rain,70,2013-05-22 13:45:00
9:45 AM,60.8,57.2,88,29.65,3.0,Calm,Calm,-,N/A,,Drizzle,0,2013-05-22 14:45:00
10:45 AM,62.6,60.8,94,29.65,2.5,NE,5.8,-,N/A,Rain,Light Rain,40,2013-05-22 15:45:00
11:45 AM,57.2,55.4,94,29.66,3.0,NE,6.9,-,N/A,,Light Drizzle,50,2013-05-22 16:45:00
12:45 PM,53.6,51.8,94,29.67,1.5,East,4.6,-,N/A,Rain,Heavy Rain,80,2013-05-22 17:45:00
1:45 PM,55.4,53.6,94,29.69,5.0,East,4.6,-,N/A,Rain,Rain,80,2013-05-22 18:45:00
2:45 PM,55.4,53.6,94,29.68,7.0,East,5.8,-,N/A,,Overcast,80,2013-05-22 19:45:00
3:45 PM,53.6,51.8,94,29.69,6.0,NE,6.9,-,N/A,Rain,Light Rain,40,2013-05-22 20:45:00
4:45 PM,53.6,51.8,94,29.69,7.0,ENE,5.8,-,N/A,,Light Drizzle,70,2013-05-22 21:45:00
5:45 PM,53.6,51.8,94,29.71,4.0,ENE,5.8,-,N/A,,Light Drizzle,70,2013-05-22 22:45:00
6:45 PM,51.8,50.0,94,29.73,3.0,NE,11.5,17.3,N/A,Rain,Heavy Rain,50,2013-05-22 23:45:00
7:45 PM,53.6,-9999,N/A,29.73,10.0,NNE,11.5,17.3,N/A,Rain,Light Rain,30,2013-05-23 00:45:00
8:45 PM,53.6,-9999,N/A,29.75,10.0,NE,11.5,-,N/A,,Drizzle,50,2013-05-23 01:45:00
9:15 PM,51.8,-40.0,4,29.76,5.0,NE,6.9,-,0.02,Rain,Rain,50,2013-05-23 02:15:00
9:35 PM,51.8,-36.4,4,29.77,7.0,NE,5.8,-,0.02,,Drizzle,50,2013-05-23 02:35:00
9:55 PM,51.8,-38.2,4,29.77,10.0,NE,6.9,-,0.03,,Light Drizzle,40,2013-05-23 02:55:00
10:15 PM,51.8,-40.0,4,29.77,7.0,NE,9.2,-,0.01,Rain,Rain,50,2013-05-23 03:15:00
10:35 PM,51.8,-40.0,4,29.77,10.0,NE,6.9,-,0.02,,Drizzle,50,2013-05-23 03:35:00
10:55 PM,50.0,-34.6,4,29.78,5.0,NE,8.1,-,0.03,,Heavy Drizzle,40,2013-05-23 03:55:00
11:15 PM,50.0,-41.8,4,29.78,4.0,NE,6.9,-,0.05,Rain,Rain,50,2013-05-23 04:15:00
11:35 PM,50.0,-40.0,4,29.78,5.0,NE,6.9,-,0.09,Rain,Light Rain,50,2013-05-23 04:35:00
11:55 PM,50.0,-38.2,4,29.78,7.0,NNE,6.9,-,0.11,,Drizzle,20,2013-05-23 04:55:00